Tracking 22780 objects as of 11-Apr-2021
HD Live streaming from Space Station
objects crossing your sky now

WESTFORD NEEDLES

Track WESTFORD NEEDLES now!
10-day predictions
WESTFORD NEEDLES is classified as:


NORAD ID: 2530
Int'l Code: 1963-014AJ
Perigee: 3,030.9 km
Apogee: 4,221.2 km
Inclination: 87.5 °
Period: 165.8 minutes
Semi major axis: 9997 km
RCS: 0.1665 m2 (medium)
Launch date: May 9, 1963
Source: United States (US)
Launch site: AIR FORCE WESTERN TEST RANGE (AFWTR)
aabbcc
Your satellite tracking list
Your tracking list is empty




NASA's NSSDC Master Catalog

Two Line Element Set (TLE):
1  2530U 63014AJ  21101.01283587  .00000037  00000-0  12851-1 0  9991
2  2530  87.4723 318.7537 0595326 168.7450 356.1242  8.68549042775309
Source of the keplerian elements: AFSPC